This is the latest recevied weather packets stored in our database for station/object KE0PRS. If no packets are shown the sender has not sent any weather packets the latest 10 day(s).
| Time | Temp. | Humidity | Pressure | Rain* | Wind** | Luminosity | Snow |
|---|---|---|---|---|---|---|---|
| 1788125834 | 39.44° C | 27% | 1010.1 hPa | 0 mm | - | 501 W/m² | - |
| 1788125529 | 39.44° C | 28% | 1010.2 hPa | 0 mm | - | 517 W/m² | - |
| 1788125225 | 40° C | 28% | 1010.1 hPa | 0 mm | - | 147 W/m² | - |
| 1788124920 | 40° C | 28% | 1010.3 hPa | 0 mm | - | 552 W/m² | - |
| 1788124615 | 40° C | 29% | 1010 hPa | 0 mm | - | 561 W/m² | - |
| 1788124314 | 40° C | 28% | 1010.1 hPa | 0 mm | - | 562 W/m² | - |
| 1788124010 | 40° C | 27% | 1010.3 hPa | 0 mm | - | 583 W/m² | - |
| 1788123709 | 40.56° C | 25% | 1010.3 hPa | 0 mm | - | 595 W/m² | - |
| 1788123406 | 40° C | 28% | 1010.6 hPa | 0 mm | - | 605 W/m² | - |
| 1788123102 | 40.56° C | 26% | 1010.8 hPa | 0 mm | - | 616 W/m² | - |
| 1788122801 | 40° C | 28% | 1010.5 hPa | 0 mm | - | 628 W/m² | - |
| 1788122500 | 40.56° C | 27% | 1010.6 hPa | 0 mm | - | 635 W/m² | - |
| 1788122197 | 40° C | 27% | 1010.6 hPa | 0 mm | - | 643 W/m² | - |
| 1788121896 | 40° C | 25% | 1010.8 hPa | 0 mm | - | 652 W/m² | - |
| 1788121596 | 39.44° C | 28% | 1010.8 hPa | 0 mm | - | 664 W/m² | - |
| 1788121291 | 39.44° C | 28% | 1011 hPa | 0 mm | - | 672 W/m² | - |
| 1788120986 | 40° C | 27% | 1011 hPa | 0 mm | - | 678 W/m² | - |
| 1788120681 | 40° C | 27% | 1011 hPa | 0 mm | - | 678 W/m² | - |
| 1788120376 | 39.44° C | 28% | 1011 hPa | 0 mm | - | 688 W/m² | - |
| 1788120075 | 39.44° C | 29% | 1011.2 hPa | 0 mm | - | 699 W/m² | - |
| 1788119771 | 39.44° C | 28% | 1011.3 hPa | 0 mm | - | 704 W/m² | - |
| 1788119468 | 38.89° C | 29% | 1011.4 hPa | 0 mm | - | 711 W/m² | - |
| 1788119163 | 38.33° C | 30% | 1011.3 hPa | 0 mm | - | 716 W/m² | - |
| 1788118863 | 38.33° C | 30% | 1011.6 hPa | 0 mm | - | 721 W/m² | - |
| 1788118562 | 38.33° C | 29% | 1011.5 hPa | 0 mm | - | 727 W/m² | - |
* Rain latest hour (hover to see other rain measurements)
** Current wind speed in m/s (hover to see current wind gust speed)